| time (UTC) | temp C | wind direction | speed KPH | gust KPH | rain 1hr cm | rain 24hr cm | rain mn cm | humidity % | barometer mb |
| 20260509190150 | 17 | 79 | 0.0 | 0.0 | 0.00 | 0.00 | 0.00 | 54 | 1011.4 |
| 20260509185642 | 17 | 69 | 0.0 | 0.0 | 0.00 | 0.00 | 0.00 | 54 | 1011.3 |
| 20260509185144 | 17 | 70 | 0.0 | 0.0 | 0.00 | 0.00 | 0.00 | 53 | 1011.3 |
| 20260509184649 | 17 | 70 | 0.0 | 0.0 | 0.00 | 0.00 | 0.00 | 53 | 1011.3 |
| 20260509184140 | 17 | 69 | 0.0 | 0.0 | 0.00 | 0.00 | 0.00 | 53 | 1011.2 |
| 20260509183649 | 17 | 69 | 0.0 | 0.0 | 0.00 | 0.00 | 0.00 | 52 | 1011.2 |
| 20260509183147 | 17 | 66 | 0.0 | 0.0 | 0.00 | 0.00 | 0.00 | 52 | 1011.2 |
| 20260509182648 | 18 | 69 | 0.0 | 0.0 | 0.00 | 0.00 | 0.00 | 51 | 1011.2 |
| 20260509182143 | 18 | 60 | 0.0 | 0.0 | 0.00 | 0.00 | 0.00 | 51 | 1011.2 |
| 20260509181638 | 18 | 63 | 0.0 | 0.0 | 0.00 | 0.00 | 0.00 | 51 | 1011.2 |
| 20260509181132 | 18 | 72 | 0.0 | 0.0 | 0.00 | 0.00 | 0.00 | 50 | 1011.4 |
| 20260509180645 | 18 | 360 | 1.6 | 0.0 | 0.00 | 0.00 | 0.00 | 51 | 1011.4 |
| 20260509180137 | 18 | 75 | 1.6 | 0.0 | 0.00 | 0.00 | 0.00 | 50 | 1011.4 |
| 20260509175641 | 18 | 96 | 1.6 | 0.0 | 0.00 | 0.00 | 0.00 | 51 | 1011.5 |
| 20260509175151 | 18 | 76 | 1.6 | 0.0 | 0.00 | 0.00 | 0.00 | 50 | 1011.5 |
| 20260509174653 | 18 | 78 | 1.6 | 0.0 | 0.00 | 0.00 | 0.00 | 50 | 1011.5 |
| 20260509174136 | 18 | 64 | 1.6 | 0.0 | 0.00 | 0.00 | 0.00 | 49 | 1011.3 |
| 20260509173640 | 18 | 69 | 0.0 | 0.0 | 0.00 | 0.00 | 0.00 | 48 | 1011.3 |
| 20260509173150 | 19 | 76 | 1.6 | 0.0 | 0.00 | 0.00 | 0.00 | 48 | 1011.3 |
| 20260509172639 | 19 | 87 | 1.6 | 0.0 | 0.00 | 0.00 | 0.00 | 48 | 1011.3 |
| 20260509172154 | 19 | 94 | 3.2 | 0.0 | 0.00 | 0.00 | 0.00 | 48 | 1011.3 |
| 20260509171640 | 20 | 67 | 3.2 | 0.0 | 0.00 | 0.00 | 0.00 | 46 | 1011.3 |
| 20260509171151 | 20 | 82 | 4.8 | 0.0 | 0.00 | 0.00 | 0.00 | 46 | 1011.4 |
| 20260509170637 | 20 | 99 | 4.8 | 0.0 | 0.00 | 0.00 | 0.00 | 46 | 1011.4 |
| 20260509170138 | 20 | 74 | 3.2 | 0.0 | 0.00 | 0.00 | 0.00 | 45 | 1011.4 |
| 20260509165646 | 20 | 98 | 3.2 | 0.0 | 0.00 | 0.00 | 0.00 | 45 | 1011.5 |
| 20260509165149 | 20 | 360 | 4.8 | 0.0 | 0.00 | 0.00 | 0.00 | 45 | 1011.5 |
| 20260509164648 | 20 | 72 | 4.8 | 0.0 | 0.00 | 0.00 | 0.00 | 45 | 1011.5 |
| 20260509164134 | 20 | 69 | 3.2 | 0.0 | 0.00 | 0.00 | 0.00 | 46 | 1011.5 |
| 20260509163638 | 20 | 65 | 3.2 | 0.0 | 0.00 | 0.00 | 0.00 | 46 | 1011.5 |
| 20260509163146 | 20 | 44 | 3.2 | 0.0 | 0.00 | 0.00 | 0.00 | 45 | 1011.5 |
| 20260509162647 | 20 | 88 | 3.2 | 0.0 | 0.00 | 0.00 | 0.00 | 45 | 1011.8 |
| 20260509162147 | 20 | 76 | 3.2 | 0.0 | 0.00 | 0.00 | 0.00 | 45 | 1011.8 |
| 20260509161650 | 20 | 360 | 1.6 | 0.0 | 0.00 | 0.00 | 0.00 | 44 | 1011.8 |
| 20260509161143 | 20 | 82 | 0.0 | 0.0 | 0.00 | 0.00 | 0.00 | 44 | 1011.9 |
| 20260509160650 | 20 | 76 | 0.0 | 0.0 | 0.00 | 0.00 | 0.00 | 45 | 1011.9 |
| 20260509160151 | 20 | 83 | 0.0 | 0.0 | 0.00 | 0.00 | 0.00 | 44 | 1011.9 |
| 20260509155638 | 20 | 15 | 0.0 | 0.0 | 0.00 | 0.00 | 0.00 | 44 | 1011.8 |
| 20260509155145 | 20 | 29 | 0.0 | 0.0 | 0.00 | 0.00 | 0.00 | 43 | 1011.8 |
| 20260509154643 | 21 | 29 | 0.0 | 0.0 | 0.00 | 0.00 | 0.00 | 42 | 1011.8 |
| 20260509154144 | 21 | 55 | 0.0 | 0.0 | 0.00 | 0.00 | 0.00 | 41 | 1011.9 |
| 20260509153652 | 21 | 87 | 1.6 | 0.0 | 0.00 | 0.00 | 0.00 | 42 | 1011.9 |
| 20260509153138 | 21 | 87 | 1.6 | 0.0 | 0.00 | 0.00 | 0.00 | 42 | 1011.9 |
| 20260509152644 | 22 | 360 | 3.2 | 0.0 | 0.00 | 0.00 | 0.00 | 41 | 1011.8 |
| 20260509152147 | 22 | 71 | 1.6 | 0.0 | 0.00 | 0.00 | 0.00 | 40 | 1011.8 |
| 20260509151655 | 22 | 360 | 1.6 | 0.0 | 0.00 | 0.00 | 0.00 | 40 | 1011.8 |
| 20260509151154 | 22 | 79 | 1.6 | 0.0 | 0.00 | 0.00 | 0.00 | 42 | 1012.2 |
| 20260509150637 | 21 | 360 | 1.6 | 0.0 | 0.00 | 0.00 | 0.00 | 42 | 1012.2 |
| 20260509150145 | 21 | 360 | 1.6 | 0.0 | 0.00 | 0.00 | 0.00 | 42 | 1012.2 |
| 20260509145633 | 21 | 61 | 1.6 | 0.0 | 0.00 | 0.00 | 0.00 | 43 | 1012.1 |
| 20260509145141 | 21 | 80 | 1.6 | 0.0 | 0.00 | 0.00 | 0.00 | 42 | 1012.1 |
| 20260509144641 | 22 | 60 | 1.6 | 0.0 | 0.00 | 0.00 | 0.00 | 41 | 1012.1 |
| 20260509144151 | 22 | 360 | 0.0 | 0.0 | 0.00 | 0.00 | 0.00 | 41 | 1012.2 |
| 20260509143647 | 22 | 24 | 0.0 | 0.0 | 0.00 | 0.00 | 0.00 | 41 | 1012.2 |
| 20260509143133 | 22 | 12 | 1.6 | 0.0 | 0.00 | 0.00 | 0.00 | 41 | 1012.2 |
| 20260509142646 | 22 | 30 | 0.0 | 0.0 | 0.00 | 0.00 | 0.00 | 39 | 1012.3 |
| 20260509142148 | 22 | 360 | 0.0 | 0.0 | 0.00 | 0.00 | 0.00 | 43 | 1012.3 |
| 20260509141647 | 22 | 355 | 1.6 | 0.0 | 0.00 | 0.00 | 0.00 | 40 | 1012.3 |
| 20260509141152 | 22 | 43 | 1.6 | 0.0 | 0.00 | 0.00 | 0.00 | 40 | 1012.6 |
| 20260509140635 | 21 | 27 | 1.6 | 0.0 | 0.00 | 0.00 | 0.00 | 42 | 1012.6 |
| 20260509140141 | 21 | 360 | 0.0 | 0.0 | 0.00 | 0.00 | 0.00 | 44 | 1012.6 |
| 20260509135644 | 20 | 86 | 0.0 | 0.0 | 0.00 | 0.00 | 0.00 | 45 | 1012.6 |
| 20260509135152 | 20 | 11 | 1.6 | 0.0 | 0.00 | 0.00 | 0.00 | 44 | 1012.6 |
| 20260509134651 | 20 | 65 | 1.6 | 0.0 | 0.00 | 0.00 | 0.00 | 45 | 1012.6 |
| 20260509134137 | 21 | 96 | 3.2 | 0.0 | 0.00 | 0.00 | 0.00 | 43 | 1012.6 |
| 20260509133644 | 21 | 63 | 3.2 | 0.0 | 0.00 | 0.00 | 0.00 | 43 | 1012.6 |
| 20260509133146 | 22 | 360 | 1.6 | 0.0 | 0.00 | 0.00 | 0.00 | 42 | 1012.6 |
| 20260509132648 | 22 | 76 | 1.6 | 0.0 | 0.00 | 0.00 | 0.00 | 42 | 1012.9 |
| 20260509132143 | 21 | 22 | 0.0 | 0.0 | 0.00 | 0.00 | 0.00 | 42 | 1012.9 |
| 20260509131643 | 21 | 19 | 0.0 | 0.0 | 0.00 | 0.00 | 0.00 | 44 | 1012.9 |
| 20260509131147 | 20 | 57 | 0.0 | 0.0 | 0.00 | 0.00 | 0.00 | 43 | 1013.0 |
| 20260509130646 | 20 | 67 | 1.6 | 0.0 | 0.00 | 0.00 | 0.00 | 44 | 1013.0 |
| 20260509130137 | 21 | 66 | 3.2 | 0.0 | 0.00 | 0.00 | 0.00 | 43 | 1013.0 |
| 20260509125646 | 22 | 351 | 1.6 | 0.0 | 0.00 | 0.00 | 0.00 | 40 | 1013.0 |
| 20260509125145 | 21 | 38 | 3.2 | 0.0 | 0.00 | 0.00 | 0.00 | 43 | 1013.0 |
| 20260509124649 | 21 | 40 | 3.2 | 0.0 | 0.00 | 0.00 | 0.00 | 42 | 1013.0 |
| 20260509124152 | 21 | 37 | 1.6 | 0.0 | 0.00 | 0.00 | 0.00 | 43 | 1013.3 |
| 20260509123655 | 21 | 79 | 1.6 | 0.0 | 0.00 | 0.00 | 0.00 | 42 | 1013.3 |
| 20260509123140 | 21 | 55 | 3.2 | 0.0 | 0.00 | 0.00 | 0.00 | 42 | 1013.3 |
| 20260509122646 | 21 | 99 | 3.2 | 0.0 | 0.00 | 0.00 | 0.00 | 42 | 1013.3 |
| 20260509122148 | 22 | 360 | 3.2 | 0.0 | 0.00 | 0.00 | 0.00 | 43 | 1013.3 |
| 20260509121650 | 22 | 92 | 1.6 | 0.0 | 0.00 | 0.00 | 0.00 | 44 | 1013.3 |
| 20260509121135 | 22 | 82 | 1.6 | 0.0 | 0.00 | 0.00 | 0.00 | 46 | 1013.5 |
| 20260509120640 | 21 | 34 | 1.6 | 0.0 | 0.00 | 0.00 | 0.00 | 43 | 1013.5 |
| 20260509120141 | 21 | 83 | 1.6 | 0.0 | 0.00 | 0.00 | 0.00 | 44 | 1013.5 |
| 20260509115640 | 21 | 360 | 0.0 | 0.0 | 0.00 | 0.00 | 0.00 | 43 | 1013.6 |
| 20260509115152 | 21 | 38 | 1.6 | 0.0 | 0.00 | 0.00 | 0.00 | 43 | 1013.6 |
| 20260509114647 | 21 | 37 | 0.0 | 0.0 | 0.00 | 0.00 | 0.00 | 45 | 1013.6 |
| 20260509114143 | 21 | 126 | 0.0 | 0.0 | 0.00 | 0.00 | 0.00 | 49 | 1013.8 |
| 20260509113636 | 20 | 360 | 0.0 | 0.0 | 0.00 | 0.00 | 0.00 | 46 | 1013.8 |
| 20260509113138 | 21 | 72 | 1.6 | 0.0 | 0.00 | 0.00 | 0.00 | 43 | 1013.8 |
| 20260509112644 | 21 | 36 | 3.2 | 0.0 | 0.00 | 0.00 | 0.00 | 46 | 1013.9 |
| 20260509112152 | 21 | 82 | 4.8 | 0.0 | 0.00 | 0.00 | 0.00 | 44 | 1013.9 |
| 20260509111638 | 21 | 72 | 3.2 | 0.0 | 0.00 | 0.00 | 0.00 | 45 | 1013.9 |
| 20260509111156 | 21 | 59 | 1.6 | 0.0 | 0.00 | 0.00 | 0.00 | 46 | 1014.0 |
| 20260509110638 | 21 | 360 | 3.2 | 0.0 | 0.00 | 0.00 | 0.00 | 45 | 1014.0 |
| 20260509110145 | 21 | 28 | 1.6 | 0.0 | 0.00 | 0.00 | 0.00 | 47 | 1014.0 |
| 20260509105640 | 20 | 50 | 1.6 | 0.0 | 0.00 | 0.00 | 0.00 | 49 | 1014.2 |
| 20260509105139 | 20 | 67 | 1.6 | 0.0 | 0.00 | 0.00 | 0.00 | 46 | 1014.2 |
| 20260509104647 | 20 | 53 | 3.2 | 0.0 | 0.00 | 0.00 | 0.00 | 46 | 1014.2 |
| 20260509104141 | 20 | 74 | 1.6 | 0.0 | 0.00 | 0.00 | 0.00 | 49 | 1014.5 |
| 20260509103636 | 21 | 72 | 1.6 | 0.0 | 0.00 | 0.00 | 0.00 | 47 | 1014.5 |
| 20260509103149 | 21 | 161 | 1.6 | 0.0 | 0.00 | 0.00 | 0.00 | 47 | 1014.5 |
| 20260509102637 | 21 | 123 | 1.6 | 0.0 | 0.00 | 0.00 | 0.00 | 45 | 1014.5 |
| 20260509102142 | 20 | 67 | 1.6 | 0.0 | 0.00 | 0.00 | 0.00 | 47 | 1014.5 |
| 20260509101639 | 20 | 269 | 1.6 | 0.0 | 0.00 | 0.00 | 0.00 | 45 | 1014.5 |
| 20260509101144 | 20 | 42 | 3.2 | 0.0 | 0.00 | 0.00 | 0.00 | 47 | 1014.6 |
| 20260509100650 | 20 | 102 | 1.6 | 0.0 | 0.00 | 0.00 | 0.00 | 47 | 1014.6 |
| 20260509100155 | 20 | 49 | 0.0 | 0.0 | 0.00 | 0.00 | 0.00 | 48 | 1014.6 |
| 20260509095638 | 20 | 127 | 1.6 | 0.0 | 0.00 | 0.00 | 0.00 | 48 | 1014.6 |
| 20260509095141 | 20 | 44 | 1.6 | 0.0 | 0.00 | 0.00 | 0.00 | 48 | 1014.6 |
| 20260509094646 | 20 | 75 | 3.2 | 0.0 | 0.00 | 0.00 | 0.00 | 47 | 1014.6 |
| 20260509094141 | 20 | 74 | 1.6 | 0.0 | 0.00 | 0.00 | 0.00 | 48 | 1014.6 |
| 20260509093649 | 20 | 360 | 1.6 | 0.0 | 0.00 | 0.00 | 0.00 | 50 | 1014.6 |
| 20260509093152 | 20 | 68 | 1.6 | 0.0 | 0.00 | 0.00 | 0.00 | 48 | 1014.6 |
| 20260509092653 | 19 | 101 | 0.0 | 0.0 | 0.00 | 0.00 | 0.00 | 52 | 1014.6 |
| 20260509092142 | 18 | 360 | 0.0 | 0.0 | 0.00 | 0.00 | 0.00 | 48 | 1014.6 |
| 20260509091644 | 19 | 115 | 1.6 | 0.0 | 0.00 | 0.00 | 0.00 | 51 | 1014.6 |
| 20260509091150 | 19 | 360 | 1.6 | 0.0 | 0.00 | 0.00 | 0.00 | 51 | 1014.6 |
| 20260509090637 | 18 | 87 | 1.6 | 0.0 | 0.00 | 0.00 | 0.00 | 53 | 1014.6 |
| 20260509090148 | 18 | 107 | 1.6 | 0.0 | 0.00 | 0.00 | 0.00 | 53 | 1014.6 |
| 20260509085654 | 18 | 92 | 1.6 | 0.0 | 0.00 | 0.00 | 0.00 | 53 | 1014.6 |
| 20260509085138 | 18 | 65 | 1.6 | 0.0 | 0.00 | 0.00 | 0.00 | 55 | 1014.6 |
| 20260509084646 | 18 | 68 | 0.0 | 0.0 | 0.00 | 0.00 | 0.00 | 54 | 1014.6 |
| 20260509084149 | 17 | 92 | 0.0 | 0.0 | 0.00 | 0.00 | 0.00 | 58 | 1014.7 |
| 20260509083655 | 17 | 96 | 0.0 | 0.0 | 0.00 | 0.00 | 0.00 | 57 | 1014.7 |
| 20260509083137 | 17 | 97 | 0.0 | 0.0 | 0.00 | 0.00 | 0.00 | 57 | 1014.7 |
| 20260509082635 | 17 | 105 | 1.6 | 0.0 | 0.00 | 0.00 | 0.00 | 60 | 1014.9 |
| 20260509082144 | 17 | 180 | 1.6 | 0.0 | 0.00 | 0.00 | 0.00 | 57 | 1014.9 |
| 20260509081651 | 16 | 156 | 1.6 | 0.0 | 0.00 | 0.00 | 0.00 | 59 | 1014.9 |
| 20260509081143 | 16 | 111 | 1.6 | 0.0 | 0.00 | 0.00 | 0.00 | 62 | 1014.7 |
| 20260509080652 | 16 | 175 | 1.6 | 0.0 | 0.00 | 0.00 | 0.00 | 62 | 1014.7 |
| 20260509080138 | 16 | 360 | 1.6 | 0.0 | 0.00 | 0.00 | 0.00 | 62 | 1014.7 |
| 20260509075642 | 16 | 201 | 0.0 | 0.0 | 0.00 | 0.00 | 0.00 | 64 | 1014.8 |
| 20260509075135 | 15 | 119 | 0.0 | 0.0 | 0.00 | 0.00 | 0.00 | 68 | 1014.8 |
| 20260509074644 | 15 | 99 | 0.0 | 0.0 | 0.00 | 0.00 | 0.00 | 71 | 1014.8 |
| 20260509074138 | 14 | 105 | 0.0 | 0.0 | 0.00 | 0.00 | 0.00 | 69 | 1014.9 |
| 20260509073644 | 14 | 105 | 1.6 | 0.0 | 0.00 | 0.00 | 0.00 | 71 | 1014.9 |
| 20260509073144 | 14 | 126 | 1.6 | 0.0 | 0.00 | 0.00 | 0.00 | 70 | 1014.9 |
| 20260509072647 | 14 | 105 | 0.0 | 0.0 | 0.00 | 0.00 | 0.00 | 72 | 1015.1 |
| 20260509072137 | 13 | 136 | 0.0 | 0.0 | 0.00 | 0.00 | 0.00 | 70 | 1015.1 |
| 20260509071643 | 13 | 83 | 0.0 | 0.0 | 0.00 | 0.00 | 0.00 | 71 | 1015.1 |
| 20260509071155 | 13 | 83 | 0.0 | 0.0 | 0.00 | 0.00 | 0.00 | 71 | 1015.1 |
| 20260509070639 | 13 | 83 | 0.0 | 0.0 | 0.00 | 0.00 | 0.00 | 72 | 1015.1 |
| 20260509070148 | 13 | 83 | 0.0 | 0.0 | 0.00 | 0.00 | 0.00 | 72 | 1015.1 |
| 20260509065650 | 13 | 83 | 0.0 | 0.0 | 0.00 | 0.00 | 0.00 | 72 | 1015.4 |
| 20260509065149 | 13 | 76 | 0.0 | 0.0 | 0.00 | 0.00 | 0.00 | 72 | 1015.4 |
| 20260509064639 | 12 | 75 | 0.0 | 0.0 | 0.00 | 0.00 | 0.00 | 73 | 1015.4 |
| 20260509064138 | 12 | 76 | 0.0 | 0.0 | 0.00 | 0.00 | 0.00 | 73 | 1015.2 |
| 20260509063640 | 12 | 76 | 0.0 | 0.0 | 0.00 | 0.00 | 0.00 | 72 | 1015.2 |
| 20260509063144 | 12 | 76 | 0.0 | 0.0 | 0.00 | 0.00 | 0.00 | 71 | 1015.2 |
| 20260509062646 | 12 | 74 | 0.0 | 0.0 | 0.00 | 0.00 | 0.00 | 71 | 1015.0 |
| 20260509062149 | 12 | 74 | 0.0 | 0.0 | 0.00 | 0.00 | 0.00 | 72 | 1015.0 |
| 20260509061650 | 12 | 74 | 0.0 | 0.0 | 0.00 | 0.00 | 0.00 | 73 | 1015.0 |
| 20260509061139 | 11 | 360 | 0.0 | 0.0 | 0.00 | 0.00 | 0.00 | 76 | 1015.0 |
| 20260509060643 | 11 | 80 | 0.0 | 0.0 | 0.00 | 0.00 | 0.00 | 77 | 1015.0 |
| 20260509060151 | 10 | 360 | 0.0 | 0.0 | 0.00 | 0.00 | 0.00 | 75 | 1015.0 |
| 20260509055640 | 10 | 79 | 0.0 | 0.0 | 0.00 | 0.00 | 0.00 | 76 | 1014.3 |
| 20260509055141 | 10 | 79 | 0.0 | 0.0 | 0.00 | 0.00 | 0.00 | 79 | 1014.3 |
| 20260509054647 | 10 | 80 | 0.0 | 0.0 | 0.00 | 0.00 | 0.00 | 77 | 1014.3 |
| 20260509054140 | 9 | 80 | 0.0 | 0.0 | 0.00 | 0.00 | 0.00 | 78 | 1014.3 |
| 20260509053642 | 9 | 80 | 0.0 | 0.0 | 0.00 | 0.00 | 0.00 | 79 | 1014.3 |
| 20260509053144 | 9 | 360 | 0.0 | 0.0 | 0.00 | 0.00 | 0.00 | 80 | 1014.3 |
| 20260509052647 | 9 | 80 | 0.0 | 0.0 | 0.00 | 0.00 | 0.00 | 80 | 1014.4 |
| 20260509052155 | 8 | 80 | 0.0 | 0.0 | 0.00 | 0.00 | 0.00 | 80 | 1014.4 |
| 20260509051653 | 8 | 80 | 0.0 | 0.0 | 0.00 | 0.00 | 0.00 | 79 | 1014.4 |
| 20260509051135 | 8 | 80 | 0.0 | 0.0 | 0.00 | 0.00 | 0.00 | 78 | 1015.0 |
| 20260509050643 | 8 | 80 | 0.0 | 0.0 | 0.00 | 0.00 | 0.00 | 78 | 1015.0 |
| 20260509050150 | 8 | 360 | 0.0 | 0.0 | 0.00 | 0.00 | 0.00 | 78 | 1015.0 |
| 20260509045653 | 8 | 80 | 0.0 | 0.0 | 0.00 | 0.00 | 0.00 | 77 | 1014.9 |
| 20260509045155 | 8 | 80 | 0.0 | 0.0 | 0.00 | 0.00 | 0.00 | 77 | 1014.9 |
| 20260509044641 | 8 | 80 | 0.0 | 0.0 | 0.00 | 0.00 | 0.00 | 77 | 1014.9 |
| 20260509044139 | 8 | 80 | 0.0 | 0.0 | 0.00 | 0.00 | 0.00 | 77 | 1014.7 |
| 20260509043639 | 8 | 80 | 0.0 | 0.0 | 0.00 | 0.00 | 0.00 | 77 | 1014.7 |
| 20260509043146 | 8 | 80 | 0.0 | 0.0 | 0.00 | 0.00 | 0.00 | 77 | 1014.7 |
| 20260509042645 | 8 | 78 | 0.0 | 0.0 | 0.00 | 0.00 | 0.00 | 77 | 1014.6 |
| 20260509042146 | 8 | 77 | 0.0 | 0.0 | 0.00 | 0.00 | 0.00 | 77 | 1014.6 |
| 20260509041648 | 8 | 41 | 0.0 | 0.0 | 0.00 | 0.00 | 0.00 | 77 | 1014.6 |
| 20260509041150 | 8 | 41 | 0.0 | 0.0 | 0.00 | 0.00 | 0.00 | 77 | 1014.5 |
| 20260509040650 | 8 | 41 | 0.0 | 0.0 | 0.00 | 0.00 | 0.00 | 77 | 1014.5 |
| 20260509040156 | 8 | 41 | 0.0 | 0.0 | 0.00 | 0.00 | 0.00 | 77 | 1014.5 |
| 20260509035644 | 8 | 40 | 0.0 | 0.0 | 0.00 | 0.00 | 0.00 | 77 | 1014.4 |
| 20260509035147 | 8 | 40 | 0.0 | 0.0 | 0.00 | 0.00 | 0.00 | 77 | 1014.4 |
| 20260509034647 | 8 | 40 | 0.0 | 0.0 | 0.00 | 0.00 | 0.00 | 77 | 1014.4 |
| 20260509034153 | 8 | 34 | 0.0 | 0.0 | 0.00 | 0.00 | 0.00 | 76 | 1014.3 |
| 20260509033657 | 8 | 5 | 0.0 | 0.0 | 0.00 | 0.00 | 0.00 | 76 | 1014.3 |
| 20260509033151 | 8 | 360 | 0.0 | 0.0 | 0.00 | 0.00 | 0.00 | 76 | 1014.3 |
| 20260509032650 | 8 | 360 | 0.0 | 0.0 | 0.00 | 0.00 | 0.00 | 76 | 1014.3 |
| 20260509032138 | 8 | 360 | 0.0 | 0.0 | 0.00 | 0.00 | 0.00 | 76 | 1014.3 |
| 20260509031643 | 8 | 360 | 0.0 | 0.0 | 0.00 | 0.00 | 0.00 | 76 | 1014.3 |
| 20260509031146 | 8 | 355 | 0.0 | 0.0 | 0.00 | 0.00 | 0.00 | 76 | 1014.6 |
| 20260509030651 | 8 | 355 | 0.0 | 0.0 | 0.00 | 0.00 | 0.00 | 76 | 1014.6 |
| 20260509030151 | 8 | 355 | 0.0 | 0.0 | 0.00 | 0.00 | 0.00 | 76 | 1014.6 |
| 20260509025645 | 8 | 355 | 0.0 | 0.0 | 0.00 | 0.00 | 0.00 | 76 | 1014.6 |
| 20260509025150 | 8 | 355 | 0.0 | 0.0 | 0.00 | 0.00 | 0.00 | 76 | 1014.6 |
| 20260509024652 | 8 | 360 | 0.0 | 0.0 | 0.00 | 0.00 | 0.00 | 76 | 1014.6 |
| 20260509024142 | 8 | 355 | 0.0 | 0.0 | 0.00 | 0.00 | 0.00 | 76 | 1014.6 |
| 20260509023648 | 8 | 360 | 0.0 | 0.0 | 0.00 | 0.00 | 0.00 | 76 | 1014.6 |
| 20260509023135 | 8 | 60 | 0.0 | 0.0 | 0.00 | 0.00 | 0.00 | 76 | 1014.6 |
| 20260509022644 | 8 | 360 | 0.0 | 0.0 | 0.00 | 0.00 | 0.00 | 75 | 1014.5 |
| 20260509022150 | 8 | 60 | 0.0 | 0.0 | 0.00 | 0.00 | 0.00 | 75 | 1014.5 |
| 20260509021640 | 8 | 61 | 0.0 | 0.0 | 0.00 | 0.00 | 0.00 | 75 | 1014.5 |
| 20260509021145 | 8 | 61 | 0.0 | 0.0 | 0.00 | 0.00 | 0.00 | 75 | 1014.4 |
| 20260509020648 | 8 | 360 | 0.0 | 0.0 | 0.00 | 0.00 | 0.00 | 75 | 1014.4 |
| 20260509020149 | 8 | 61 | 0.0 | 0.0 | 0.00 | 0.00 | 0.00 | 75 | 1014.4 |
| 20260509015655 | 8 | 360 | 0.0 | 0.0 | 0.00 | 0.00 | 0.00 | 75 | 1014.4 |
| 20260509015154 | 8 | 61 | 0.0 | 0.0 | 0.00 | 0.00 | 0.00 | 75 | 1014.4 |
| 20260509014649 | 8 | 60 | 0.0 | 0.0 | 0.00 | 0.00 | 0.00 | 75 | 1014.4 |
| 20260509014142 | 8 | 60 | 0.0 | 0.0 | 0.00 | 0.00 | 0.00 | 75 | 1014.4 |
| 20260509013645 | 8 | 61 | 0.0 | 0.0 | 0.00 | 0.00 | 0.00 | 75 | 1014.4 |
| 20260509013149 | 8 | 61 | 0.0 | 0.0 | 0.00 | 0.00 | 0.00 | 75 | 1014.4 |
| 20260509012655 | 8 | 61 | 0.0 | 0.0 | 0.00 | 0.00 | 0.00 | 74 | 1014.2 |
| 20260509012143 | 8 | 60 | 0.0 | 0.0 | 0.00 | 0.00 | 0.00 | 74 | 1014.2 |
| 20260509011649 | 8 | 60 | 0.0 | 0.0 | 0.00 | 0.00 | 0.00 | 74 | 1014.2 |
| 20260509011157 | 8 | 61 | 0.0 | 0.0 | 0.00 | 0.00 | 0.00 | 74 | 1014.2 |
| 20260509010641 | 8 | 60 | 0.0 | 0.0 | 0.00 | 0.00 | 0.00 | 74 | 1014.2 |
| 20260509010144 | 8 | 360 | 0.0 | 0.0 | 0.00 | 0.00 | 0.00 | 75 | 1014.2 |
| 20260509005650 | 8 | 61 | 0.0 | 0.0 | 0.00 | 0.00 | 0.00 | 75 | 1014.2 |
| 20260509005139 | 8 | 61 | 0.0 | 0.0 | 0.00 | 0.00 | 0.00 | 75 | 1014.2 |
| 20260509004639 | 8 | 61 | 0.0 | 0.0 | 0.00 | 0.00 | 0.00 | 75 | 1014.2 |
| 20260509004142 | 8 | 61 | 0.0 | 0.0 | 0.00 | 0.00 | 0.00 | 75 | 1014.1 |
| 20260509003643 | 8 | 61 | 0.0 | 0.0 | 0.00 | 0.00 | 0.00 | 75 | 1014.1 |
| 20260509003147 | 8 | 360 | 0.0 | 0.0 | 0.00 | 0.00 | 0.00 | 74 | 1014.1 |
| 20260509002650 | 8 | 60 | 0.0 | 0.0 | 0.00 | 0.00 | 0.00 | 73 | 1014.4 |
| 20260509002153 | 8 | 60 | 0.0 | 0.0 | 0.00 | 0.00 | 0.00 | 73 | 1014.4 |
| 20260509001645 | 8 | 60 | 0.0 | 0.0 | 0.00 | 0.00 | 0.00 | 73 | 1014.4 |
| 20260509001144 | 8 | 60 | 0.0 | 0.0 | 0.00 | 0.00 | 0.00 | 73 | 1014.5 |
| 20260509000650 | 8 | 59 | 0.0 | 0.0 | 0.00 | 0.00 | 0.00 | 72 | 1014.5 |
| 20260509000135 | 8 | 59 | 0.0 | 0.0 | 0.00 | 0.00 | 0.00 | 72 | 1014.5 |
| 20260508235638 | 8 | 59 | 0.0 | 0.0 | 0.00 | 0.00 | 0.00 | 71 | 1014.5 |
| 20260508235140 | 8 | 59 | 0.0 | 0.0 | 0.00 | 0.00 | 0.00 | 71 | 1014.5 |
| 20260508234646 | 9 | 360 | 0.0 | 0.0 | 0.00 | 0.00 | 0.00 | 71 | 1014.5 |
| 20260508234155 | 9 | 71 | 0.0 | 0.0 | 0.00 | 0.00 | 0.00 | 71 | 1014.5 |
| 20260508233657 | 9 | 59 | 0.0 | 0.0 | 0.00 | 0.00 | 0.00 | 71 | 1014.5 |
| 20260508233156 | 9 | 59 | 0.0 | 0.0 | 0.00 | 0.00 | 0.00 | 71 | 1014.5 |
| 20260508232642 | 9 | 59 | 0.0 | 0.0 | 0.00 | 0.00 | 0.00 | 71 | 1014.5 |
| 20260508232151 | 9 | 59 | 0.0 | 0.0 | 0.00 | 0.00 | 0.00 | 71 | 1014.5 |
| 20260508231649 | 9 | 59 | 0.0 | 0.0 | 0.00 | 0.00 | 0.00 | 71 | 1014.5 |
| 20260508231155 | 9 | 59 | 0.0 | 0.0 | 0.00 | 0.00 | 0.00 | 70 | 1014.8 |
| 20260508230657 | 9 | 59 | 0.0 | 0.0 | 0.00 | 0.00 | 0.00 | 70 | 1014.8 |
| 20260508230147 | 9 | 59 | 0.0 | 0.0 | 0.00 | 0.00 | 0.00 | 70 | 1014.8 |
| 20260508225638 | 10 | 59 | 0.0 | 0.0 | 0.00 | 0.00 | 0.00 | 70 | 1014.7 |
| 20260508225147 | 10 | 59 | 0.0 | 0.0 | 0.00 | 0.00 | 0.00 | 70 | 1014.7 |
| 20260508224652 | 10 | 59 | 0.0 | 0.0 | 0.00 | 0.00 | 0.00 | 70 | 1014.7 |
| 20260508224140 | 10 | 59 | 0.0 | 0.0 | 0.00 | 0.00 | 0.00 | 71 | 1014.6 |
| 20260508223641 | 10 | 360 | 0.0 | 0.0 | 0.00 | 0.00 | 0.00 | 70 | 1014.6 |
| 20260508223147 | 10 | 59 | 0.0 | 0.0 | 0.00 | 0.00 | 0.00 | 70 | 1014.6 |
| 20260508222654 | 10 | 60 | 0.0 | 0.0 | 0.00 | 0.00 | 0.00 | 70 | 1014.6 |
| 20260508222154 | 10 | 60 | 0.0 | 0.0 | 0.00 | 0.00 | 0.00 | 70 | 1014.6 |
| 20260508221640 | 10 | 60 | 0.0 | 0.0 | 0.00 | 0.00 | 0.00 | 70 | 1014.6 |
| 20260508221142 | 10 | 60 | 0.0 | 0.0 | 0.00 | 0.00 | 0.00 | 70 | 1014.6 |
| 20260508220648 | 10 | 60 | 0.0 | 0.0 | 0.00 | 0.00 | 0.00 | 69 | 1014.6 |
| 20260508220152 | 10 | 60 | 0.0 | 0.0 | 0.00 | 0.00 | 0.00 | 69 | 1014.6 |
| 20260508215636 | 10 | 60 | 0.0 | 0.0 | 0.00 | 0.00 | 0.00 | 69 | 1014.5 |
| 20260508215138 | 10 | 59 | 0.0 | 0.0 | 0.00 | 0.00 | 0.00 | 68 | 1014.5 |
| 20260508214643 | 10 | 67 | 0.0 | 0.0 | 0.00 | 0.00 | 0.00 | 68 | 1014.5 |
| 20260508214148 | 10 | 60 | 0.0 | 0.0 | 0.00 | 0.00 | 0.00 | 68 | 1014.4 |
| 20260508213650 | 10 | 60 | 0.0 | 0.0 | 0.00 | 0.00 | 0.00 | 67 | 1014.4 |
| 20260508213139 | 11 | 60 | 0.0 | 0.0 | 0.00 | 0.00 | 0.00 | 67 | 1014.4 |
| 20260508212639 | 11 | 59 | 0.0 | 0.0 | 0.00 | 0.00 | 0.00 | 67 | 1014.4 |
| 20260508212148 | 11 | 59 | 0.0 | 0.0 | 0.00 | 0.00 | 0.00 | 67 | 1014.4 |
| 20260508211652 | 11 | 59 | 0.0 | 0.0 | 0.00 | 0.00 | 0.00 | 67 | 1014.4 |
| 20260508211152 | 11 | 60 | 0.0 | 0.0 | 0.00 | 0.00 | 0.00 | 67 | 1013.7 |
| 20260508210637 | 11 | 360 | 0.0 | 0.0 | 0.00 | 0.00 | 0.00 | 67 | 1013.7 |
| 20260508210141 | 11 | 63 | 0.0 | 0.0 | 0.00 | 0.00 | 0.00 | 66 | 1013.7 |
| 20260508205645 | 11 | 60 | 0.0 | 0.0 | 0.00 | 0.00 | 0.00 | 66 | 1013.7 |
| 20260508205145 | 11 | 60 | 0.0 | 0.0 | 0.00 | 0.00 | 0.00 | 66 | 1013.7 |
| 20260508204655 | 11 | 60 | 0.0 | 0.0 | 0.00 | 0.00 | 0.00 | 66 | 1013.7 |
| 20260508204137 | 11 | 60 | 0.0 | 0.0 | 0.00 | 0.00 | 0.00 | 65 | 1013.6 |
| 20260508203648 | 12 | 60 | 0.0 | 0.0 | 0.00 | 0.00 | 0.00 | 65 | 1013.6 |
| 20260508203143 | 12 | 61 | 0.0 | 0.0 | 0.00 | 0.00 | 0.00 | 65 | 1013.6 |
| 20260508202639 | 12 | 360 | 0.0 | 0.0 | 0.00 | 0.00 | 0.00 | 64 | 1014.3 |
| 20260508202153 | 12 | 360 | 0.0 | 0.0 | 0.00 | 0.00 | 0.00 | 63 | 1014.3 |
| 20260508201639 | 12 | 360 | 0.0 | 0.0 | 0.00 | 0.00 | 0.00 | 63 | 1014.3 |
| 20260508201155 | 12 | 61 | 0.0 | 0.0 | 0.00 | 0.00 | 0.00 | 63 | 1013.5 |
| 20260508200654 | 12 | 64 | 0.0 | 0.0 | 0.00 | 0.00 | 0.00 | 63 | 1013.5 |
| 20260508200140 | 12 | 64 | 0.0 | 0.0 | 0.00 | 0.00 | 0.00 | 63 | 1013.5 |
| 20260508195645 | 12 | 64 | 0.0 | 0.0 | 0.00 | 0.00 | 0.00 | 63 | 1013.2 |
| 20260508195152 | 13 | 69 | 0.0 | 0.0 | 0.00 | 0.00 | 0.00 | 62 | 1013.2 |
| 20260508194636 | 13 | 69 | 0.0 | 0.0 | 0.00 | 0.00 | 0.00 | 62 | 1013.2 |
| 20260508194142 | 13 | 57 | 0.0 | 0.0 | 0.00 | 0.00 | 0.00 | 62 | 1013.2 |
| 20260508193638 | 13 | 49 | 0.0 | 0.0 | 0.00 | 0.00 | 0.00 | 61 | 1013.2 |
| 20260508193140 | 13 | 49 | 0.0 | 0.0 | 0.00 | 0.00 | 0.00 | 61 | 1013.2 |
| 20260508192649 | 13 | 48 | 0.0 | 0.0 | 0.00 | 0.00 | 0.00 | 61 | 1013.6 |
| 20260508192152 | 13 | 55 | 0.0 | 0.0 | 0.00 | 0.00 | 0.00 | 60 | 1013.6 |
| 20260508191655 | 14 | 57 | 0.0 | 0.0 | 0.00 | 0.00 | 0.00 | 60 | 1013.6 |
| 20260508191140 | 14 | 59 | 0.0 | 0.0 | 0.00 | 0.00 | 0.00 | 60 | 1012.8 |
| 20260508190649 | 14 | 67 | 0.0 | 0.0 | 0.00 | 0.00 | 0.00 | 59 | 1012.8 |